Terminal Aerodrome Forecast
Issued by NWS Wichita, KS

Home | Current Version | Previous Version | Text Only | Print | Product List | Glossary Off
Versions: 1 2 3 4 5 6 7 8 9 10 11 12 13 14 15 16 17 18

000
FTUS43 KICT 201700
TAFICT
TAF
KICT 201736Z 2018/2118 21013KT P6SM BKN035
     FM210000 19007KT P6SM SCT050 BKN100
     FM210600 03008KT P6SM VCTS BKN040CB
     FM211200 03014KT P6SM SCT080=

USA.gov is the U.S. government's official web portal to all federal, state and local government web resources and services.